[[{"header":{"parameterUnit":"m.s-1","parameterCategory":1,"la1":30.2991,"la2":30.254,"lo1":-89.0895,"lo2":-89.0444,"dy":0.0017,"dx":0.0017,"nx":28,"ny":28,"refTime":"2025-05-17T09:00:00:Z","depth":0,"parameterNumber":2,"parameterNumberName":"U-component_of_WINDS"},"data":[0,0,0,0,0,0,0,0,0,0,0,0,0,0,0,0,0,0,0,0,0,0,0,0,0,0,0,0,0,0,0,0,0,0,0,0,0,0,0,0,0,0,0,0,0,0,0,0,0,0,0,0,0,0,0,0,0,0,1.1282,1.1283,0,1.1427,1.1429,1.1431,1.1471,1.147,1.1469,1.1468,1.162,1.1624,1.1629,0,0,0,0,0,0,0,0,0,0,0,0,0,1.1041,1.1045,1.1282,1.1284,1.1285,1.1427,1.1429,1.1431,1.1471,1.147,1.1469,1.1468,1.1618,1.1624,1.163,0,0,0,0,0,0,0,0,0,0,0,0,0,1.1162,1.1046,1.1281,1.1322,1.1327,1.1427,1.1429,1.1432,1.1471,1.147,1.1469,1.1468,1.1616,1.1623,1.163,1.17,0,0,1.1652,1.1656,0,0,0,0,0,0,0,0,1.1155,1.1171,1.1315,1.132,1.1326,1.143,1.14,1.1522,1.1472,1.1417,1.1468,1.1467,1.1558,1.157,1.16,1.1707,1.1714,1.1653,1.1657,1.1661,1.1663,0,0,0,0,0,0,0,1.1147,1.1165,1.1339,1.1317,1.1323,1.1334,1.135,1.1423,1.1493,1.1421,1.1425,1.1441,1.156,1.1593,1.1604,1.1716,1.1653,1.1659,1.1664,1.1667,1.1888,1.189,0,0,0,0,0,0,1.1131,1.1157,1.1335,1.1344,1.1235,1.134,1.1357,1.1398,1.1492,1.1505,1.1442,1.1443,1.1581,1.1595,1.1609,1.1697,1.166,1.1667,1.1671,1.1887,1.1889,1.189,0,0,0,0,0,0,1.1125,1.1146,1.1329,1.1252,1.1276,1.1345,1.139,1.1401,1.1433,1.1508,1.152,1.1462,1.1581,1.1599,1.1677,1.1703,1.167,1.1677,1.1885,1.1887,1.189,1.1873,0,0,0,0,0,0,1.1118,1.1144,1.1171,1.1252,1.128,1.1394,1.1392,1.1405,1.1445,1.1447,1.153,1.1542,1.1581,1.1666,1.1684,1.1712,1.1683,1.1883,1.1886,1.1889,1.1872,1.1875,1.1877,0,0,0,0,0,1.111,1.116,1.1172,1.1193,1.1314,1.1395,1.1411,1.1454,1.1447,1.1475,1.1523,1.1539,1.1697,1.1674,1.1695,1.1725,1.1882,1.1885,1.1889,1.187,1.1874,1.1877,0,0,0,0,0,0,1.1081,1.1172,1.1185,1.1264,1.1321,1.1402,1.1438,1.1456,1.1518,1.1517,1.1569,1.1587,1.1662,1.1701,1.1674,1.1798,1.179,1.1798,1.1769,1.1773,1.1775,1.1764,1.1689,0,0,0,0,0,1.1083,1.1141,1.1218,1.1279,1.1308,1.1368,1.1405,1.1433,1.1495,1.152,1.1573,1.1633,1.1696,1.1737,1.1799,1.1878,1.1897,1.1909,1.1912,1.1914,1.192,1.1965,1.1971,1.1902,1.1902,1.1902,0,0,1.1089,1.1146,1.118,1.1275,1.1323,1.1382,1.1388,1.145,1.1495,1.1529,1.1606,1.1648,1.1718,1.1797,1.1834,1.1832,1.1943,1.1918,1.1919,1.1924,1.1969,1.1976,1.1981,1.1904,1.1904,1.1904,0,0,1.1131,1.1179,1.1236,1.1285,1.1357,1.1397,1.141,1.1488,1.1517,1.1595,1.1622,1.1677,1.1784,1.1834,1.1873,1.1934,1.1952,1.1953,1.1967,1.201,1.2015,1.2021,1.2042,1.205,1.1959,1.1959,1.1959,0,1.1129,1.1219,1.1264,1.1325,1.1366,1.14,1.1459,1.1503,1.1592,1.1621,1.1617,1.1753,1.1803,1.1894,1.1909,1.194,1.1957,1.1943,1.2011,1.2017,1.2022,1.2043,1.2051,1.1958,1.1958,1.1958,1.1958,0,1.1214,1.1275,1.1313,1.1398,1.1444,1.1503,1.1558,1.1599,1.1624,1.1664,1.1743,1.1805,1.188,1.1904,1.1928,1.1998,1.1995,1.2001,1.1994,1.2027,1.2048,1.2057,1.1958,1.1958,1.1958,1.1958,0,0,1.124,1.1349,1.1362,1.1401,1.1484,1.1533,1.1595,1.1668,1.1703,1.1764,1.1817,1.1907,1.1913,1.1958,1.1988,1.2026,1.2071,1.2028,1.203,1.2033,1.2152,1.2147,1.2156,1.2083,1.2085,1.2087,1.2146,0,1.1291,1.1402,1.1444,1.1535,1.1593,1.1626,1.168,1.1737,1.1777,1.1832,1.1877,1.194,1.1943,1.197,1.2009,1.2057,1.2095,1.2054,1.2134,1.2136,1.2114,1.2167,1.2162,1.2215,1.2155,1.2156,1.2157,0,1.1366,1.1427,1.1523,1.1599,1.1625,1.1673,1.1744,1.1796,1.1862,1.1889,1.1938,1.1967,1.2033,1.2022,1.2115,1.2086,1.2121,1.215,1.2153,1.2162,1.2148,1.2177,1.2233,1.224,1.2171,1.2169,1.2168,0,1.1375,1.1482,1.1553,1.1586,1.1677,1.1709,1.1749,1.1813,1.1855,1.1917,1.1945,1.2014,1.2052,1.2106,1.2153,1.214,1.2241,1.2234,1.2265,1.2264,1.2284,1.2282,1.2346,1.2308,1.2308,1.2307,1.2307,0,1.1428,1.1485,1.1558,1.1602,1.1668,1.1717,1.1781,1.1823,1.188,1.1933,1.1967,1.2016,1.2075,1.2132,1.2169,1.2241,1.2258,1.2281,1.229,1.2278,1.2275,1.2301,1.2299,1.231,1.2309,1.2309,1.2308,0,1.1449,1.15,1.158,1.166,1.1681,1.1726,1.1795,1.1839,1.1881,1.1947,1.1966,1.2031,1.21,1.2152,1.2242,1.2267,1.2343,1.2353,1.232,1.2325,1.2353,1.2349,1.2436,1.245,1.2402,1.2402,1.2403,0,1.1479,1.1524,1.1608,1.1646,1.1686,1.1746,1.1789,1.1839,1.1882,1.1961,1.1996,1.2067,1.2127,1.2236,1.2291,1.236,1.2372,1.2398,1.2383,1.2369,1.2372,1.2369,1.2374,1.2399,1.24,1.24,1.24,0,1.1526,1.155,1.161,1.1679,1.1729,1.1786,1.1843,1.1873,1.1934,1.1981,1.2051,1.2098,1.2189,1.226,1.2334,1.2376,1.2398,1.2404,1.2415,1.2403,1.2382,1.2394,1.2325,1.2402,1.2402,1.2402,1.2402,1.2402,1.1553,1.1594,1.1661,1.1727,1.1776,1.1829,1.1874,1.1922,1.1982,1.206,1.2086,1.2159,1.2225,1.2328,1.237,1.2428,1.2429,1.2444,1.2448,1.2451,1.245,1.2373,1.2442,1.2442,1.2442,1.2442,1.2442,0,1.1602,1.1647,1.1707,1.1787,1.1839,1.1855,1.192,1.1963,1.2027,1.2086,1.2144,1.2226,1.2294,1.2356,1.2427,1.2462,1.2474,1.2479,1.2477,1.2486,1.2446,1.2429,1.2468,1.2468,1.2468,1.2468,1.2468,1.2468,1.1634,1.1705,1.1737,1.1833,1.1878,1.1949,1.1985,1.2035,1.2082,1.2172,1.2229,1.2269,1.2329,1.2406,1.2469,1.2486,1.2511,1.2513,1.2532,1.2492,1.2489,1.2486,1.2471,1.2518,1.2518,1.2568,1.2568,1.2568]},{"header":{"parameterUnit":"m.s-1","parameterCategory":1,"la1":30.2991,"la2":30.254,"lo1":-89.0895,"lo2":-89.0444,"dy":0.0017,"dx":0.0017,"nx":28,"ny":28,"refTime":"2025-05-17T09:00:00:Z","depth":0,"parameterNumber":3,"parameterNumberName":"V-component_of_WINDS"},"data":[0,0,0,0,0,0,0,0,0,0,0,0,0,0,0,0,0,0,0,0,0,0,0,0,0,0,0,0,0,0,0,0,0,0,0,0,0,0,0,0,0,0,0,0,0,0,0,0,0,0,0,0,0,0,0,0,0,0,4.3209,4.3209,0,4.3213,4.3213,4.3213,4.321,4.321,4.321,4.3209,4.321,4.321,4.321,0,0,0,0,0,0,0,0,0,0,0,0,0,4.3198,4.3198,4.3209,4.3209,4.3209,4.3213,4.3213,4.3213,4.321,4.321,4.3209,4.3209,4.321,4.321,4.321,0,0,0,0,0,0,0,0,0,0,0,0,0,4.3202,4.3198,4.3209,4.3208,4.3208,4.3213,4.3213,4.3213,4.321,4.321,4.3209,4.3209,4.321,4.321,4.321,4.3215,0,0,4.3211,4.3211,0,0,0,0,0,0,0,0,4.3202,4.3203,4.3208,4.3208,4.3208,4.3211,4.3209,4.3214,4.321,4.3209,4.3209,4.3209,4.321,4.321,4.3211,4.3215,4.3215,4.3211,4.3211,4.3211,4.3211,0,0,0,0,0,0,0,4.3202,4.3203,4.3211,4.3209,4.3208,4.3207,4.3208,4.321,4.3211,4.3209,4.3209,4.321,4.321,4.3211,4.3211,4.3215,4.3211,4.3211,4.3211,4.3211,4.3224,4.3225,0,0,0,0,0,0,4.3202,4.3202,4.3211,4.3211,4.3205,4.3207,4.3208,4.321,4.3211,4.3211,4.321,4.3209,4.3211,4.3211,4.3211,4.3218,4.3211,4.3211,4.3211,4.3224,4.3224,4.3225,0,0,0,0,0,0,4.3202,4.3203,4.321,4.3207,4.3207,4.3208,4.321,4.321,4.3211,4.3211,4.3211,4.3211,4.3211,4.3211,4.3215,4.3218,4.3211,4.3212,4.3224,4.3224,4.3224,4.323,0,0,0,0,0,0,4.3201,4.3203,4.3205,4.3207,4.3208,4.3214,4.3211,4.321,4.3212,4.3212,4.3212,4.3212,4.3211,4.3214,4.3215,4.3218,4.3212,4.3224,4.3224,4.3224,4.323,4.3231,4.3232,0,0,0,0,0,4.3201,4.3205,4.3205,4.3206,4.321,4.3214,4.3215,4.3214,4.3212,4.3214,4.3214,4.3212,4.3217,4.3215,4.3215,4.3218,4.3223,4.3224,4.3224,4.3229,4.323,4.3231,0,0,0,0,0,0,4.3202,4.3205,4.3205,4.321,4.3212,4.3214,4.3216,4.3215,4.3217,4.3217,4.3215,4.3215,4.3219,4.3219,4.3216,4.3224,4.322,4.3221,4.3224,4.3225,4.3226,4.3225,4.3212,0,0,0,0,0,4.3203,4.3207,4.3209,4.3214,4.3215,4.3216,4.3217,4.3217,4.3218,4.3219,4.3219,4.322,4.3222,4.3223,4.3225,4.323,4.323,4.3232,4.3233,4.3234,4.3234,4.3238,4.3239,4.3226,4.3226,4.3226,0,0,4.3205,4.3208,4.321,4.3214,4.3216,4.3219,4.3216,4.3219,4.3222,4.3219,4.3223,4.3223,4.3224,4.3229,4.3231,4.3229,4.3238,4.3235,4.3235,4.3235,4.3238,4.324,4.3241,4.3227,4.3227,4.3227,0,0,4.3211,4.3213,4.3217,4.3219,4.3222,4.3223,4.3224,4.3226,4.3227,4.3231,4.3229,4.3232,4.3235,4.3236,4.3237,4.3245,4.3243,4.3245,4.325,4.3253,4.3254,4.3255,4.3258,4.3259,4.3246,4.3246,4.3246,0,4.3212,4.3218,4.3219,4.3223,4.3226,4.3225,4.3229,4.3231,4.3233,4.3235,4.3233,4.3238,4.3239,4.3244,4.3246,4.3247,4.3248,4.3245,4.3254,4.3255,4.3256,4.3259,4.326,4.3246,4.3246,4.3246,4.3246,0,4.322,4.3225,4.3228,4.3232,4.3235,4.3239,4.324,4.3243,4.3242,4.3243,4.3248,4.3249,4.3251,4.3252,4.3251,4.3258,4.3257,4.3254,4.325,4.3257,4.326,4.3261,4.3247,4.3246,4.3246,4.3246,0,0,4.3225,4.3232,4.3233,4.3236,4.324,4.3243,4.3247,4.3251,4.3253,4.3255,4.3259,4.3263,4.3261,4.3262,4.3262,4.3264,4.3271,4.3262,4.3262,4.3264,4.3279,4.3281,4.3282,4.327,4.327,4.3271,4.3279,0,4.3231,4.324,4.3242,4.3249,4.3253,4.3253,4.3257,4.326,4.3261,4.3264,4.3265,4.3268,4.3266,4.3266,4.3269,4.327,4.3274,4.3269,4.3273,4.3273,4.3273,4.3283,4.3285,4.3293,4.328,4.328,4.328,0,4.3239,4.3244,4.3252,4.3257,4.3258,4.3262,4.3266,4.3269,4.3273,4.3273,4.3276,4.3275,4.3279,4.3276,4.3282,4.3278,4.328,4.3281,4.3281,4.3281,4.3277,4.3284,4.3295,4.3297,4.3282,4.3282,4.3282,0,4.3243,4.325,4.3257,4.3259,4.3264,4.3267,4.3269,4.3273,4.3275,4.3279,4.328,4.3284,4.3285,4.3288,4.3288,4.3286,4.3294,4.3291,4.3295,4.3295,4.3296,4.3296,4.3308,4.3297,4.3297,4.3297,4.3297,0,4.3249,4.3254,4.3259,4.3263,4.3269,4.327,4.3276,4.3278,4.3281,4.3285,4.3285,4.3288,4.3289,4.3292,4.3292,4.3298,4.3298,4.3299,4.3299,4.3299,4.3299,4.33,4.3299,4.3298,4.3298,4.3298,4.3297,0,4.3254,4.3257,4.3264,4.327,4.3271,4.3275,4.3279,4.3283,4.3285,4.329,4.3291,4.3294,4.3298,4.3299,4.3303,4.3303,4.331,4.3309,4.3309,4.3309,4.3314,4.3313,4.3327,4.3329,4.3316,4.3316,4.3316,0,4.3257,4.3262,4.3268,4.3272,4.3275,4.328,4.3283,4.3285,4.3289,4.3293,4.3296,4.3301,4.3305,4.3312,4.3313,4.3317,4.3317,4.3321,4.3317,4.3318,4.3317,4.3317,4.3318,4.3322,4.3322,4.3322,4.3322,0,4.3264,4.3266,4.3271,4.3278,4.3282,4.3287,4.3291,4.3294,4.3296,4.33,4.3305,4.3309,4.3315,4.3319,4.3323,4.3325,4.3324,4.3324,4.3325,4.3325,4.3325,4.3326,4.3312,4.3323,4.3323,4.3323,4.3323,4.3323,4.3269,4.3273,4.3279,4.3285,4.3289,4.3294,4.3298,4.3301,4.3306,4.3312,4.3313,4.3319,4.3322,4.3328,4.333,4.3334,4.3333,4.3334,4.3335,4.3335,4.3336,4.3325,4.3335,4.3335,4.3335,4.3335,4.3335,0,4.3276,4.328,4.3286,4.3293,4.3298,4.3299,4.3304,4.3308,4.3314,4.3318,4.3322,4.3329,4.3334,4.3336,4.3341,4.3344,4.3344,4.3345,4.3345,4.3346,4.3337,4.3335,4.3345,4.3345,4.3345,4.3345,4.3345,4.3345,4.328,4.3288,4.3291,4.3301,4.3305,4.3312,4.3315,4.3319,4.3322,4.333,4.3335,4.3337,4.3341,4.3346,4.3351,4.3351,4.3353,4.3355,4.3355,4.3347,4.3346,4.3345,4.3344,4.3355,4.3355,4.3364,4.3364,4.3364]}]]